Tracking 32427 objects as of 10-Dec-2025
HD Live streaming from Space Station
objects crossing your sky now

STARLINK-5501

Track STARLINK-5501 now!
10-day predictions
STARLINK-5501 is classified as:


NORAD ID: 55648
Int'l Code: 2023-021W
Perigee: 577.4 km
Apogee: 581.0 km
Inclination: 70.0 °
Period: 96.1 minutes
Semi major axis: 6950 km
RCS: Unknown
Launch date: February 17, 2023
Source: United States (US)
Launch site: AIR FORCE WESTERN TEST RANGE (AFWTR)
Your satellite tracking list
Your tracking list is empty




NASA's NSSDC Master Catalog

Two Line Element Set (TLE):
1 55648U 23021W   25344.31903251 -.00005308  00000-0 -43761-3 0  9990
2 55648  70.0016  49.8316 0002598 262.4186  97.6678 14.98314404155404
Source of the keplerian elements: AFSPC